Location: Shepherdstown, WV
(39.4326°N, 77.8042°W)
Time: 04:53:34
(UTC-04:00)

Vanguard 3 - Pass Details

Date: 08 August 2021
Orbit: 510 x 3260 km, 33.3° (Epoch: 21 September)

Event Time Altitude Azimuth Distance (km) Brightness Sun altitude
Rises 18:11:43 0° 255° (WSW) 4,644 12.3 22.4°
Reaches altitude 10° 18:14:17 10° 252° (WSW) 3,955 12.2 22.0°
Maximum altitude 18:25:32 68° 172° (S) 2,572 9.9 19.8°
Drops below altitude 10° 18:43:52 10° 95° (E) 6,101 11.0 16.3°
Sets 18:48:57 0° 94° (E) 7,216 11.3 15.3°
